Location: Unspecified
(58.9933°N, 5.6375°E)
Time: 01:28:04
(UTC+02:00)

Resurs 1-4 Rocket - Visible Passes

Search period start: 01 September 2016 00:00
Search period end: 11 September 2016 00:00
Orbit: 799 x 815 km, 98.4° (Epoch: 31 August)

Date Brightness Start Highest point End Pass type
(mag) Time Alt. Az. Time Alt. Az. Time Alt. Az.
01 Sep 4.6 02:43:15 10° NE 02:45:40 13° E 02:48:05 10° ESE visible
01 Sep 2.7 04:21:30 10° NNE 04:26:43 56° ESE 04:31:53 10° S visible
02 Sep 3.2 03:57:03 10° NNE 04:02:01 39° E 04:06:57 10° SSE visible
02 Sep 2.4 05:36:57 10° NNE 05:42:04 51° WNW 05:47:10 10° SW visible
03 Sep 3.8 03:32:43 10° NNE 03:37:14 28° E 03:41:43 10° SSE visible
03 Sep 2.1 05:12:18 10° NNE 05:17:35 72° WNW 05:22:51 10° SSW visible
04 Sep 4.2 03:08:34 10° NE 03:12:22 20° E 03:16:08 10° SE visible
04 Sep 2.2 04:47:43 10° NNE 04:53:03 82° ESE 04:58:10 11° SSW visible
05 Sep 4.6 02:44:50 10° NE 02:47:24 13° E 02:49:57 10° ESE visible
05 Sep 2.6 04:23:11 10° NNE 04:28:26 58° ESE 04:33:14 12° S visible
06 Sep 3.2 03:58:44 10° NNE 04:03:43 40° E 04:08:18 12° SSE visible
06 Sep 2.5 05:38:38 10° NNE 05:43:44 50° WNW 05:48:50 10° SW visible
07 Sep 3.7 03:34:22 10° NNE 03:38:56 28° E 03:43:21 11° SSE visible
07 Sep 2.1 05:14:00 10° NNE 05:19:16 70° WNW 05:24:26 11° SSW visible
08 Sep 4.2 03:10:12 10° NE 03:14:04 20° E 03:17:56 10° SE visible
08 Sep 2.1 04:49:24 10° NNE 04:54:44 84° ESE 04:59:29 13° SSW visible
09 Sep 4.5 02:46:24 10° NE 02:49:07 14° E 02:51:50 10° ESE visible
09 Sep 2.5 04:24:52 10° NNE 04:30:07 60° ESE 04:34:33 15° S visible
09 Sep 2.9 06:05:01 10° N 06:09:48 36° WNW 06:14:35 10° WSW visible
10 Sep 3.1 04:00:24 10° NNE 04:05:25 42° E 04:09:37 14° SSE visible
10 Sep 2.5 05:40:20 10° N 05:45:25 49° WNW 05:50:30 10° SW visible
